Location: Unspecified
(0.0000°N, 0.0000°E)
Time: 17:01:56
(UTC+00:00)

STUDSAT - Visible Passes

Search period start: 28 May 2023 00:00
Search period end: 07 June 2023 00:00
Orbit: 585 x 604 km, 98.2° (Epoch: 28 May)

Date Brightness Start Highest point End Pass type
(mag) Time Alt. Az. Time Alt. Az. Time Alt. Az.
28 May ? 18:17:36 10° NE 18:20:47 21° ESE 18:23:59 10° SSE visible
28 May ? 19:53:49 10° NW 19:56:04 14° WNW 19:58:20 10° WSW visible
29 May ? 18:26:30 10° NE 18:30:05 28° ESE 18:33:43 10° SSE visible
29 May ? 20:04:40 10° WNW 20:05:23 10° WNW 20:06:05 10° W visible
30 May ? 18:35:31 10° NNE 18:39:24 39° ESE 18:43:19 10° S visible
31 May ? 18:44:38 10° NNE 18:48:42 54° ESE 18:52:49 10° S visible
01 Jun ? 18:53:51 10° NNE 18:58:01 75° ESE 19:02:13 10° S visible
02 Jun ? 19:03:08 10° N 19:07:18 79° WNW 19:11:32 10° SSW visible
03 Jun ? 19:12:31 10° N 19:16:37 57° WNW 19:20:45 10° SSW visible
04 Jun ? 19:21:58 10° N 19:25:54 41° WNW 19:29:53 10° SSW visible
05 Jun ? 19:31:31 10° NNW 19:35:11 30° WNW 19:38:53 10° SW visible
06 Jun ? 19:41:12 10° NNW 19:44:28 22° WNW 19:47:47 10° SW visible
